Regional Weather Roundup
Issued by NWS

Home | Current Version | Previous Version | Graphics & Text | Print | Product List | Glossary On
Versions: 1 2 3 4 5 6 7 8 9 10 11 12 13 14 15 16 17 18 19 20 21 22 23 24 25 26 27 28 29 30 31 32 33 34 35 36 37 38 39 40 41 42 43 44 45 46 47 48 49 50
000
ASUS45 KCYS 230210
RWRWY

WYOMING REGIONAL WEATHER ROUNDUP
NATIONAL WEATHER SERVICE CHEYENNE WY
800 PM MDT WED MAR 22 2017

NOTE:  "FAIR" INDICATES FEW OR NO CLOUDS BELOW 12,000 FEET
WITH NO SIGNIFICANT WEATHER AND/OR OBSTRUCTIONS TO VISIBILITY.

WYZ001-230300-
YELLOWSTONE NATIONAL PARK

CITY           SKY/WX    TMP DP  RH WIND       PRES   REMARKS
LK YELLOWSTONE   N/A     33  30  88 CALM      29.92F
W YELLOWSTONE  NOT AVBL

$$
WYZ002>013-054>058-071-098>099-230300-
NORTHERN WYOMING

CITY           SKY/WX    TMP DP  RH WIND       PRES   REMARKS
JACKSON          N/A     37  36  93 N12       29.88  WCI  30
CODY           FAIR      55  29  36 SW7       29.77R
GREYBULL       FAIR      61  38  42 NW5       29.68S
WORLAND        FAIR      58  36  43 S14       29.70R
SHERIDAN       FAIR      51  42  71 CALM      29.75F
BUFFALO        FAIR      49  38  65 NW5       29.78F
GILLETTE       FAIR      49  39  68 CALM      29.76F
HULETT         FAIR      48  37  66 E7        29.80R
NEWCASTLE      FAIR      57  34  41 CALM      29.78F

$$
WYZ014>020-022>026-101>103-230300-
CENTRAL WYOMING

CITY           SKY/WX    TMP DP  RH WIND       PRES   REMARKS
BIG PINEY      LGT RAIN  38  35  89 N12       29.90R WCI  30
PINEDALE       LGT RAIN  36  34  93 W6        29.91R WCI  31
DUBOIS         CLOUDY    41  30  65 NW5       29.86F
LANDER         FAIR      48  38  68 SE7       29.79S
RIVERTON       MOCLDY    52  35  52 S13       29.81R
CASPER         FAIR      49  37  63 S7        29.79F
DOUGLAS        FAIR      52  37  56 NE6       29.81S

$$
WYZ021-027>030-104>119-230300-
SOUTHERN WYOMING

CITY           SKY/WX    TMP DP  RH WIND       PRES   REMARKS
EVANSTON       FAIR      42  34  73 N6        29.86F
KEMMERER         N/A     37  32  81 N6        29.88F WCI  33
FORT BRIDGER   RAIN      44  39  82 N5        29.91S
ROCK SPRINGS   CLOUDY    45  39  79 E5        29.86R
DIXON            N/A     56  26  31 S13G25    29.91R
RAWLINS        CLOUDY    55  23  28 S12       29.86S
SARATOGA       FAIR      54  23  30 S12G30    29.90S
LARAMIE        FAIR      52  22  30 S15       29.89S
CHEYENNE       FAIR      57  32  38 SW6       29.88R
TORRINGTON     FAIR      63  33  32 SE16      29.78S
PINE BLUFFS    FAIR      59  34  38 SE20G29   29.84S

$$



USA.gov is the U.S. government's official web portal to all federal, state and local government web resources and services.